IU2EVW-13 Weather Reports


time (UTC)temp
F
wind
direction
speed
knots
gust
knots
rain 1hr
in
rain 24hr
in
rain mn
in
humidity
%
barometer
mb
20260506024054 49 0.0 0.0 0.00 0.00 0.00 85 1012.7
20260506022053 49 0.0 0.0 0.00 0.00 0.00 86 1013.1
20260506020052 49 0.0 0.0 0.00 0.00 0.00 84 1013.0
20260506014050 49 0.0 0.0 0.00 0.00 0.00 85 1013.2
20260506012049 49 0.0 0.0 0.00 0.00 0.00 85 1013.0
20260506010048 49 0.0 0.0 0.00 0.00 0.00 84 1013.5
20260506004046 49 0.0 0.0 0.00 0.00 0.00 84 1013.7
20260506002045 49 0.0 0.0 0.00 0.00 0.00 85 1013.8
20260506000044 49 0.0 0.0 0.00 0.00 0.00 86 1014.0
20260505234042 49 0.0 0.0 0.00 0.00 0.00 84 1014.2
20260505232041 49 0.0 0.0 0.00 0.00 0.00 84 1014.4
20260505230040 49 0.0 0.0 0.00 0.00 0.00 82 1014.3
20260505224039 49 0.0 0.0 0.00 0.00 0.00 82 1014.2
20260505222037 50 0.0 0.0 0.00 0.00 0.00 81 1014.4
20260505220036 49 0.0 0.0 0.00 0.00 0.00 82 1014.7
20260505214034 49 0.0 0.0 0.00 0.00 0.00 82 1014.9
20260505212033 49 0.0 0.0 0.00 0.00 0.00 84 1015.1
20260505210032 49 0.0 0.0 0.00 0.00 0.00 83 1015.2
20260505204030 49 0.0 0.0 0.00 0.00 0.00 84 1015.2
20260505202029 49 0.0 0.0 0.00 0.00 0.00 83 1015.1
20260505200028 49 0.0 0.0 0.00 0.00 0.00 83 1015.0
20260505194026 50 0.0 0.0 0.00 0.00 0.00 83 1015.1
20260505192025 50 0.0 0.0 0.00 0.00 0.00 83 1014.9
20260505190024 49 0.0 0.0 0.00 0.00 0.00 84 1014.9
20260505184022 50 0.0 0.0 0.00 0.00 0.00 83 1014.8
20260505182021 50 0.0 0.0 0.00 0.00 0.00 82 1014.6
20260505180020 50 0.0 0.0 0.00 0.00 0.00 82 1014.6
20260505174018 50 0.0 0.0 0.00 0.00 0.00 81 1014.6
20260505172018 51 0.0 0.0 0.00 0.00 0.00 80 1014.6
20260505170016 51 0.0 0.0 0.00 0.00 0.00 81 1014.5
20260505164014 52 0.0 0.0 0.00 0.00 0.00 79 1014.5
20260505162013 51 0.0 0.0 0.00 0.00 0.00 78 1014.7
20260505152009 52 0.0 0.0 0.00 0.00 0.00 78 1014.8
20260505123957 51 0.0 0.0 0.00 0.00 0.00 81 1015.3
20260505121955 52 0.0 0.0 0.00 0.00 0.00 78 1015.3
20260505115954 53 0.0 0.0 0.00 0.00 0.00 78 1015.3
20260505113953 54 0.0 0.0 0.00 0.00 0.00 71 1015.3
20260505111951 53 0.0 0.0 0.00 0.00 0.00 73 1015.4
20260505101947 53 0.0 0.0 0.00 0.00 0.00 78 1015.6
20260505095944 52 0.0 0.0 0.00 0.00 0.00 77 1015.8
20260505093943 51 0.0 0.0 0.00 0.00 0.00 76 1015.6
20260505091942 51 0.0 0.0 0.00 0.00 0.00 78 1015.6
20260505085940 50 0.0 0.0 0.00 0.00 0.00 80 1015.6
20260505083939 50 0.0 0.0 0.00 0.00 0.00 80 1015.6
20260505081938 49 0.0 0.0 0.00 0.00 0.00 77 1015.5
20260505075937 50 0.0 0.0 0.00 0.00 0.00 74 1015.4
20260505073935 50 0.0 0.0 0.00 0.00 0.00 70 1015.2
20260505071933 50 0.0 0.0 0.00 0.00 0.00 67 1015.0
20260505065932 51 0.0 0.0 0.00 0.00 0.00 63 1014.7
20260505063931 51 0.0 0.0 0.00 0.00 0.00 60 1014.8
20260505061929 52 0.0 0.0 0.00 0.00 0.00 57 1014.5
20260505055928 53 0.0 0.0 0.00 0.00 0.00 54 1014.5
20260505053926 52 0.0 0.0 0.00 0.00 0.00 54 1014.1
20260505051925 52 0.0 0.0 0.00 0.00 0.00 53 1013.9
20260505035919 52 0.0 0.0 0.00 0.00 0.00 54 1014.1
20260505033918 52 0.0 0.0 0.00 0.00 0.00 53 1014.5
20260505031917 51 0.0 0.0 0.00 0.00 0.00 55 1014.8
20260505025916 52 0.0 0.0 0.00 0.00 0.00 51 1014.9